Regional Weather Roundup
Issued by NWS

Home | Current Version | Previous Version | Text Only | Print | Product List | Glossary Off
Versions: 1 2 3 4 5 6 7 8 9 10 11 12 13 14 15 16 17 18 19 20 21 22 23 24 25 26 27

000
ASUS45 KSLC 311110
RWRUT

UTAH REGIONAL WEATHER ROUNDUP
NATIONAL WEATHER SERVICE SALT LAKE CITY UT
500 AM MDT WED AUG 31 2016

UTZ001>011-023>025-311200-

NORTHERN UTAH

CITY           SKY/WX    TMP DP  RH WIND       PRES   REMARKS
BRIGHAM CITY     N/A     61  42  49 NW6       30.05R
HILL AFB       PTCLDY    71  31  23 E18       30.07S
LOGAN          MOCLDY    58  43  57 CALM      30.06F
OGDEN          PTCLDY    71  32  23 S10       30.04S
PROVO AIRPORT  NOT AVBL
SALT LAKE CITY PTCLDY    77  34  21 S13       30.03S
VERNAL         CLEAR     52  37  56 NW5       30.20S
WENDOVER       CLEAR     66  32  28 E7        30.02S
HEBER CITY     CLEAR     45  36  70 CALM      30.20R
WEST JORDAN    CLEAR     74  37  26 S17       30.08S

$$

UTZ012>022-026-027-311200-

SOUTHERN/CENTRAL UTAH

CITY           SKY/WX    TMP DP  RH WIND       PRES   REMARKS
BLANDING       CLEAR     63  44  49 CALM      30.34S
BRYCE CANYON   CLEAR     44  36  73 W5        30.36F
CEDAR CITY     PTCLDY    66  31  27 S5        30.17S
DELTA          CLEAR     68  34  28 S9        30.10R
MILFORD        CLEAR     58  36  43 SE5       30.12S
MOAB/CYNLANDS  CLEAR     63  32  31 CALM      30.13S
PRICE          CLEAR     59  30  33 NE8       30.22S
ST GEORGE      SUNNY     75  39  27 S7        30.00S

$$

REGIONAL REPORTS     COLORADO/ARIZONA

CITY           SKY/WX    TMP DP  RH WIND       PRES   REMARKS
CRAIG, CO      CLEAR     49  39  68 CALM      30.27F
GRAND JUNCTION CLEAR     64  43  46 E8        30.17S
RIFLE          CLEAR     56  47  71 SE7       30.25S
MONTROSE       CLEAR     56  45  66 S5        30.28S
CORTEZ         CLOUDY    58  49  72 CALM      30.28S
PAGE, AZ       CLEAR     69  39  33 CALM      30.11S
GRAND CANYON   CLEAR     48  42  80 CALM      30.28S
KINGMAN        CLEAR     70  45  40 SE8       30.00S
FLAGSTAFF      CLEAR     47  42  83 CALM      30.30F

$$

REGIONAL REPORTS    NEVADA/IDAHO/WYOMING

CITY           SKY/WX    TMP DP  RH WIND       PRES   REMARKS
LAS VEGAS, NV  PTCLDY    85  36  17 S6        29.85S
ELY            CLEAR     54  27  35 S12       30.19S
ELKO           PTCLDY    58  28  32 CALM      30.06R
POCATELLO, ID  CLEAR     49  39  68 CALM      30.04R
BURLEY         MOCLDY    52  46  80 CALM      29.98S
EVANSTON, WY   CLOUDY    57  27  31 E6        30.29S
ROCK SPRINGS   CLOUDY    56  36  47 E8        30.29S

$$




USA.gov is the U.S. government's official web portal to all federal, state and local government web resources and services.